Tracking 18980 objects as of 18-Feb-2018
HD Live streaming from Space Station
objects crossing your sky now

COSMOS 2165

Track COSMOS 2165 now!
10-day predictions
COSMOS 2165 is classified as:


NORAD ID: 21779
Int'l Code: 1991-077A
Perigee: 1,401.1 km
Apogee: 1,419.2 km
Inclination: 82.6 °
Period: 113.8 minutes
Semi major axis: 7781 km
RCS: 1.2522 m2 (large)
Launch date: November 12, 1991
Source: Commonwealth of Independent States (former USSR) (CIS)
Launch site: PLESETSK MISSILE AND SPACE COMPLEX (PKMTR)
aabbcc
Your satellite tracking list
Your tracking list is empty




NASA's NSSDC Master Catalog

Two Line Element Set (TLE):
1 21779U 91077A   18048.97294148 +.00000005 +00000-0 -33690-4 0  9996
2 21779 082.6084 014.6143 0011643 138.0705 282.1287 12.64838352212517
Source of the keplerian elements: AFSPC